AAY1204 KSFB-KBNA

Flight info

Callsign AAY1204
Flight time 1h 35m
Altitude 32000
Route WORMS JEEMY ACCHE PAINN SHRKS THRSR SWFFT3
Aircraft B38M/M-SDE1FGHILORVWXY/HB1

Departure

Time 2026-05-06 01:18
Airport Orlando Sanford International Airport (KSFB)

Arrival

Time 2026-05-06 02:53
Airport Nashville International Airport (KBNA)
Time Latitude Longitude Altitude Speed Heading
2026-05-06 00:43 28.77624 -81.24479 64 ft 0 kts 266°
2026-05-06 01:08 28.77628 -81.24453 58 ft 4 kts 246°
2026-05-06 01:08 28.77644 -81.24431 61 ft 4 kts 210°
2026-05-06 01:08 28.77659 -81.24421 63 ft 4 kts 271°
2026-05-06 01:09 28.77660 -81.24422 63 ft 1 kts 306°
2026-05-06 01:09 28.77659 -81.24421 63 ft 0 kts 306°
2026-05-06 01:12 28.77663 -81.24427 58 ft 4 kts 306°
2026-05-06 01:13 28.77707 -81.24456 56 ft 10 kts 354°
2026-05-06 01:13 28.77761 -81.24482 50 ft 8 kts 284°
2026-05-06 01:13 28.77790 -81.24533 54 ft 10 kts 352°
2026-05-06 01:13 28.77871 -81.24534 55 ft 13 kts
2026-05-06 01:14 28.78052 -81.24555 54 ft 15 kts 311°
2026-05-06 01:14 28.78067 -81.24685 56 ft 18 kts 270°
2026-05-06 01:14 28.78065 -81.24828 55 ft 13 kts 271°
2026-05-06 01:15 28.78065 -81.24932 51 ft 14 kts 269°
2026-05-06 01:15 28.78063 -81.25055 49 ft 16 kts 269°
2026-05-06 01:15 28.78063 -81.25190 57 ft 18 kts 271°
2026-05-06 01:15 28.78064 -81.25336 59 ft 19 kts 270°
2026-05-06 01:16 28.78065 -81.25439 60 ft 20 kts 270°
2026-05-06 01:16 28.78113 -81.25585 57 ft 14 kts 351°
2026-05-06 01:16 28.78170 -81.25565 55 ft 8 kts 64°
2026-05-06 01:16 28.78173 -81.25524 57 ft 7 kts 89°
2026-05-06 01:17 28.78174 -81.25214 58 ft 76 kts 90°
2026-05-06 01:17 28.78176 -81.24362 61 ft 136 kts 90°
2026-05-06 01:17 28.78180 -81.23555 99 ft 163 kts 90°
2026-05-06 01:17 28.78192 -81.22214 643 ft 172 kts 88°
2026-05-06 01:18 28.78251 -81.20856 1428 ft 170 kts 89°
2026-05-06 01:18 28.78295 -81.19478 2065 ft 184 kts 89°
2026-05-06 01:18 28.78606 -81.17972 2394 ft 214 kts 63°
2026-05-06 01:18 28.79610 -81.16604 2889 ft 239 kts 38°
2026-05-06 01:19 28.81157 -81.15738 3463 ft 259 kts 14°
2026-05-06 01:19 28.82994 -81.15587 4159 ft 269 kts 351°
2026-05-06 01:19 28.84738 -81.16278 5170 ft 267 kts 326°
2026-05-06 01:19 28.86082 -81.17719 6112 ft 266 kts 306°
2026-05-06 01:20 28.87259 -81.19369 7030 ft 269 kts 308°
2026-05-06 01:20 28.88463 -81.20999 7972 ft 269 kts 309°
2026-05-06 01:20 28.89679 -81.22629 8892 ft 270 kts 310°
2026-05-06 01:20 28.90905 -81.24262 9832 ft 272 kts 311°
2026-05-06 01:21 28.92151 -81.25917 10531 ft 281 kts 312°
2026-05-06 01:21 28.93476 -81.27668 10911 ft 302 kts 311°
2026-05-06 01:21 28.94894 -81.29542 11221 ft 322 kts 311°
2026-05-06 01:21 28.96386 -81.31518 11668 ft 335 kts 311°
2026-05-06 01:22 28.97913 -81.33549 12420 ft 338 kts 311°
2026-05-06 01:22 28.99455 -81.35604 13135 ft 344 kts 311°
2026-05-06 01:22 29.01093 -81.37618 13861 ft 349 kts 321°
2026-05-06 01:22 29.03182 -81.39041 14576 ft 352 kts 332°
2026-05-06 01:23 29.05373 -81.40328 15301 ft 356 kts 332°
2026-05-06 01:23 29.07587 -81.41616 16059 ft 358 kts 332°
2026-05-06 01:23 29.09904 -81.42694 16750 ft 364 kts 345°
2026-05-06 01:23 29.12394 -81.43055 17482 ft 367 kts 351°
2026-05-06 01:24 29.14985 -81.43345 18127 ft 372 kts 352°
2026-05-06 01:24 29.17538 -81.43609 18750 ft 375 kts 352°
2026-05-06 01:24 29.20144 -81.43869 19330 ft 377 kts 352°
2026-05-06 01:24 29.22779 -81.44126 19900 ft 380 kts 352°
2026-05-06 01:25 29.25425 -81.44381 20451 ft 383 kts 351°
2026-05-06 01:25 29.28084 -81.44636 21014 ft 386 kts 351°
2026-05-06 01:25 29.30775 -81.44893 21539 ft 389 kts 351°
2026-05-06 01:25 29.33488 -81.45152 22075 ft 392 kts 351°
2026-05-06 01:26 29.36213 -81.45411 22591 ft 395 kts 351°
2026-05-06 01:26 29.38963 -81.45674 23117 ft 398 kts 350°
2026-05-06 01:26 29.41734 -81.45938 23619 ft 401 kts 350°
2026-05-06 01:26 29.44531 -81.46205 24047 ft 403 kts 350°
2026-05-06 01:27 29.47331 -81.46472 24503 ft 405 kts 350°
2026-05-06 01:27 29.50143 -81.46740 24970 ft 406 kts 350°
2026-05-06 01:27 29.52955 -81.47009 25425 ft 407 kts 350°
2026-05-06 01:27 29.55786 -81.47279 25906 ft 408 kts 350°
2026-05-06 01:28 29.58619 -81.47541 26369 ft 409 kts 350°
2026-05-06 01:28 29.61456 -81.47798 26815 ft 410 kts 350°
2026-05-06 01:28 29.64308 -81.48057 27263 ft 411 kts 350°
2026-05-06 01:28 29.67171 -81.48317 27703 ft 413 kts 350°
2026-05-06 01:29 29.70039 -81.48578 28127 ft 414 kts 350°
2026-05-06 01:29 29.72876 -81.48836 28545 ft 415 kts 350°
2026-05-06 01:29 29.75764 -81.49099 28963 ft 417 kts 350°
2026-05-06 01:29 29.78661 -81.49363 29366 ft 418 kts 350°
2026-05-06 01:30 29.81566 -81.49628 29749 ft 420 kts 350°
2026-05-06 01:30 29.84487 -81.49894 30143 ft 422 kts 350°
2026-05-06 01:30 29.87408 -81.50161 30529 ft 420 kts 349°
2026-05-06 01:30 29.90239 -81.50770 30982 ft 409 kts 338°
2026-05-06 01:31 29.92950 -81.51753 31425 ft 408 kts 339°
2026-05-06 01:31 29.95666 -81.52695 31849 ft 407 kts 338°
2026-05-06 01:31 29.98374 -81.53652 32068 ft 406 kts 338°
2026-05-06 01:31 30.01058 -81.54607 32081 ft 403 kts 338°
2026-05-06 01:32 30.06405 -81.56518 32075 ft 401 kts 338°
2026-05-06 01:32 30.11751 -81.58431 32079 ft 402 kts 338°
2026-05-06 01:33 30.17080 -81.60342 32086 ft 400 kts 338°
2026-05-06 01:33 30.22390 -81.62248 32087 ft 400 kts 338°
2026-05-06 01:34 30.27712 -81.64159 32085 ft 400 kts 338°
2026-05-06 01:34 30.33029 -81.66072 32078 ft 400 kts 338°
2026-05-06 01:35 30.38343 -81.67985 32058 ft 403 kts 338°
2026-05-06 01:35 30.43689 -81.69912 32062 ft 402 kts 338°
2026-05-06 01:36 30.49035 -81.71842 32063 ft 403 kts 338°
2026-05-06 01:36 30.54381 -81.73773 32064 ft 403 kts 338°
2026-05-06 01:37 30.59732 -81.75708 32061 ft 403 kts 338°
2026-05-06 01:37 30.62317 -81.76898 32047 ft 396 kts 326°
2026-05-06 01:37 30.64563 -81.78715 32068 ft 394 kts 322°
2026-05-06 01:38 30.69033 -81.82407 32059 ft 395 kts 322°
2026-05-06 01:38 30.73471 -81.86164 32061 ft 393 kts 321°
2026-05-06 01:39 30.77878 -81.89926 32054 ft 393 kts 321°
2026-05-06 01:39 30.82285 -81.93696 32051 ft 393 kts 321°
2026-05-06 01:40 30.86692 -81.97471 32044 ft 393 kts 321°
2026-05-06 01:40 30.91072 -82.01227 32049 ft 393 kts 321°
2026-05-06 01:41 30.95475 -82.05008 32047 ft 393 kts 321°
2026-05-06 01:41 30.99880 -82.08794 32044 ft 393 kts 321°
2026-05-06 01:42 31.04279 -82.12580 32049 ft 392 kts 321°
2026-05-06 01:42 31.08666 -82.16360 32050 ft 392 kts 321°
2026-05-06 01:43 31.13057 -82.20147 32051 ft 392 kts 321°
2026-05-06 01:43 31.17443 -82.23935 32058 ft 392 kts 321°
2026-05-06 01:44 31.21802 -82.27704 32063 ft 392 kts 321°
2026-05-06 01:44 31.26185 -82.31498 32063 ft 392 kts 321°
2026-05-06 01:45 31.30566 -82.35296 32093 ft 392 kts 321°
2026-05-06 01:45 31.34931 -82.39083 32065 ft 391 kts 321°
2026-05-06 01:46 31.39318 -82.42894 32056 ft 394 kts 321°
2026-05-06 01:46 31.43726 -82.46728 32055 ft 394 kts 321°
2026-05-06 01:47 31.48128 -82.50562 32045 ft 394 kts 321°
2026-05-06 01:47 31.52527 -82.54397 32046 ft 394 kts 321°
2026-05-06 01:48 31.56925 -82.58236 32044 ft 394 kts 321°
2026-05-06 01:48 31.61298 -82.62058 32046 ft 395 kts 321°
2026-05-06 01:49 31.65700 -82.65910 32047 ft 395 kts 321°
2026-05-06 01:49 31.70072 -82.69740 32050 ft 395 kts 321°
2026-05-06 01:50 31.74439 -82.73570 32055 ft 394 kts 321°
2026-05-06 01:50 31.78841 -82.77436 32056 ft 395 kts 321°
2026-05-06 01:51 31.83240 -82.81305 32054 ft 396 kts 320°
2026-05-06 01:51 31.87657 -82.85193 32080 ft 396 kts 320°
2026-05-06 01:52 31.92059 -82.89073 32042 ft 395 kts 320°
2026-05-06 01:52 31.96452 -82.92950 32045 ft 395 kts 320°
2026-05-06 01:53 32.00848 -82.96834 32043 ft 395 kts 320°
2026-05-06 01:53 32.05245 -83.00723 32044 ft 395 kts 320°
2026-05-06 01:54 32.09638 -83.04615 32060 ft 395 kts 320°
2026-05-06 01:54 32.14032 -83.08511 32071 ft 395 kts 320°
2026-05-06 01:55 32.18416 -83.12405 32079 ft 394 kts 320°
2026-05-06 01:55 32.22798 -83.16300 32074 ft 394 kts 319°
2026-05-06 01:56 32.27154 -83.20178 32073 ft 395 kts 319°
2026-05-06 01:56 32.31547 -83.24093 32063 ft 395 kts 319°
2026-05-06 01:57 32.35937 -83.28010 32016 ft 395 kts 319°
2026-05-06 01:57 32.40331 -83.31936 32016 ft 395 kts 319°
2026-05-06 01:58 32.44715 -83.35858 32048 ft 395 kts 319°
2026-05-06 01:58 32.49092 -83.39778 32014 ft 394 kts 319°
2026-05-06 01:59 32.53466 -83.43702 32011 ft 394 kts 319°
2026-05-06 01:59 32.57840 -83.47629 32024 ft 394 kts 319°
2026-05-06 02:00 32.62210 -83.51558 32028 ft 394 kts 319°
2026-05-06 02:00 32.66586 -83.55498 32022 ft 395 kts 319°
2026-05-06 02:01 32.70935 -83.59417 32036 ft 395 kts 319°
2026-05-06 02:01 32.75316 -83.63371 32046 ft 395 kts 319°
2026-05-06 02:02 32.79692 -83.67325 32039 ft 395 kts 319°
2026-05-06 02:02 32.84054 -83.71272 32031 ft 395 kts 319°
2026-05-06 02:03 32.88446 -83.75251 32030 ft 395 kts 318°
2026-05-06 02:03 32.92814 -83.79212 32028 ft 395 kts 318°
2026-05-06 02:04 32.97192 -83.83189 32026 ft 395 kts 318°
2026-05-06 02:04 33.01561 -83.87162 32056 ft 395 kts 318°
2026-05-06 02:05 33.05191 -83.90467 32025 ft 394 kts 318°
2026-05-06 02:05 33.10268 -83.95095 32022 ft 396 kts 318°
2026-05-06 02:06 33.14646 -83.99092 32020 ft 396 kts 318°
2026-05-06 02:06 33.18311 -84.02441 32022 ft 396 kts 318°
2026-05-06 02:07 33.22694 -84.06452 32032 ft 396 kts 318°
2026-05-06 02:07 33.27040 -84.10434 32039 ft 396 kts 318°
2026-05-06 02:08 33.31414 -84.14447 32050 ft 396 kts 318°
2026-05-06 02:08 33.35791 -84.18468 32054 ft 396 kts 318°
2026-05-06 02:09 33.40164 -84.22488 32063 ft 396 kts 318°
2026-05-06 02:09 33.44531 -84.26508 32063 ft 396 kts 318°
2026-05-06 02:10 33.48899 -84.30537 32054 ft 396 kts 317°
2026-05-06 02:10 33.53265 -84.34566 32054 ft 396 kts 317°
2026-05-06 02:11 33.57629 -84.38600 32041 ft 396 kts 317°
2026-05-06 02:11 33.62002 -84.42627 32014 ft 397 kts 320°
2026-05-06 02:12 33.64493 -84.44153 32032 ft 407 kts 332°
2026-05-06 02:12 33.67132 -84.45404 32002 ft 409 kts 331°
2026-05-06 02:12 33.72419 -84.47931 32027 ft 409 kts 331°
2026-05-06 02:13 33.77715 -84.50416 32009 ft 409 kts 331°
2026-05-06 02:13 33.83204 -84.52986 31999 ft 409 kts 331°
2026-05-06 02:14 33.88502 -84.55470 31986 ft 408 kts 331°
2026-05-06 02:14 33.93795 -84.57954 31990 ft 409 kts 331°
2026-05-06 02:15 33.98956 -84.60699 32031 ft 403 kts 326°
2026-05-06 02:15 34.03960 -84.63793 32024 ft 404 kts 326°
2026-05-06 02:16 34.08977 -84.66846 32011 ft 404 kts 327°
2026-05-06 02:16 34.13999 -84.69899 32005 ft 405 kts 326°
2026-05-06 02:17 34.19030 -84.72960 31997 ft 405 kts 326°
2026-05-06 02:17 34.24029 -84.76006 31995 ft 405 kts 326°
2026-05-06 02:18 34.29063 -84.79077 31992 ft 405 kts 326°
2026-05-06 02:18 34.34093 -84.82150 31984 ft 405 kts 326°
2026-05-06 02:19 34.39121 -84.85226 31978 ft 405 kts 326°
2026-05-06 02:19 34.44143 -84.88303 31969 ft 405 kts 326°
2026-05-06 02:20 34.51690 -84.92934 31981 ft 405 kts 326°
2026-05-06 02:21 34.56722 -84.96027 31984 ft 405 kts 326°
2026-05-06 02:21 34.61747 -84.99118 31984 ft 405 kts 326°
2026-05-06 02:22 34.66595 -85.02441 31998 ft 400 kts 320°
2026-05-06 02:22 34.71290 -85.06122 31987 ft 401 kts 321°
2026-05-06 02:23 34.76000 -85.09758 31975 ft 401 kts 321°
2026-05-06 02:23 34.80715 -85.13392 31968 ft 401 kts 321°
2026-05-06 02:24 34.85428 -85.17028 31941 ft 401 kts 321°
2026-05-06 02:24 34.90137 -85.20666 31977 ft 401 kts 321°
2026-05-06 02:25 34.94860 -85.24321 31954 ft 402 kts 321°
2026-05-06 02:25 34.99589 -85.27985 31950 ft 402 kts 321°
2026-05-06 02:26 35.04316 -85.31652 31883 ft 401 kts 321°
2026-05-06 02:26 35.06655 -85.33469 31037 ft 401 kts 321°
2026-05-06 02:26 35.09016 -85.35303 30220 ft 403 kts 321°
2026-05-06 02:26 35.11391 -85.37151 29243 ft 406 kts 321°
2026-05-06 02:27 35.13777 -85.39007 28277 ft 411 kts 321°
2026-05-06 02:27 35.16119 -85.41048 27570 ft 413 kts 312°
2026-05-06 02:27 35.18129 -85.43594 27148 ft 421 kts 310°
2026-05-06 02:27 35.20194 -85.46162 26779 ft 426 kts 310°
2026-05-06 02:28 35.22240 -85.48736 26337 ft 428 kts 310°
2026-05-06 02:28 35.24344 -85.51405 25875 ft 432 kts 310°
2026-05-06 02:28 35.26394 -85.54018 25431 ft 434 kts 310°
2026-05-06 02:28 35.28488 -85.56688 24964 ft 434 kts 310°
2026-05-06 02:29 35.30571 -85.59350 24500 ft 433 kts 310°
2026-05-06 02:29 35.32650 -85.62008 24037 ft 431 kts 310°
2026-05-06 02:29 35.34721 -85.64657 23579 ft 429 kts 310°
2026-05-06 02:29 35.36782 -85.67297 23053 ft 427 kts 310°
2026-05-06 02:30 35.38811 -85.69897 22576 ft 416 kts 310°
2026-05-06 02:30 35.40792 -85.72437 22128 ft 406 kts 310°
2026-05-06 02:30 35.42721 -85.74915 21711 ft 397 kts 309°
2026-05-06 02:30 35.44607 -85.77336 21285 ft 389 kts 309°
2026-05-06 02:31 35.46461 -85.79719 20865 ft 383 kts 309°
2026-05-06 02:31 35.48280 -85.82059 20456 ft 376 kts 309°
2026-05-06 02:31 35.50072 -85.84365 20049 ft 370 kts 309°
2026-05-06 02:31 35.51836 -85.86639 19657 ft 365 kts 309°
2026-05-06 02:32 35.53553 -85.88851 19274 ft 360 kts 309°
2026-05-06 02:32 35.55259 -85.91067 18910 ft 354 kts 308°
2026-05-06 02:32 35.56914 -85.93282 18585 ft 348 kts 308°
2026-05-06 02:32 35.58534 -85.95447 18298 ft 342 kts 307°
2026-05-06 02:33 35.60127 -85.97576 17967 ft 336 kts 307°
2026-05-06 02:33 35.61192 -85.98998 17763 ft 332 kts 307°
2026-05-06 02:33 35.64813 -86.03840 17111 ft 331 kts 307°
2026-05-06 02:34 35.66367 -86.05921 16839 ft 330 kts 307°
2026-05-06 02:34 35.67923 -86.08007 16515 ft 329 kts 307°
2026-05-06 02:34 35.69461 -86.10070 16365 ft 322 kts 307°
2026-05-06 02:34 35.70936 -86.12082 16243 ft 310 kts 303°
2026-05-06 02:35 35.72207 -86.14222 15997 ft 314 kts 301°
2026-05-06 02:35 35.73507 -86.16420 15684 ft 320 kts 301°
2026-05-06 02:35 35.74832 -86.18638 15318 ft 322 kts 301°
2026-05-06 02:35 35.76160 -86.20850 14922 ft 321 kts 301°
2026-05-06 02:36 35.77486 -86.23053 14547 ft 318 kts 301°
2026-05-06 02:36 35.78781 -86.25204 14153 ft 316 kts 301°
2026-05-06 02:36 35.80086 -86.27372 13753 ft 314 kts 301°
2026-05-06 02:36 35.81386 -86.29531 13299 ft 313 kts 301°
2026-05-06 02:37 35.82677 -86.31676 12872 ft 310 kts 301°
2026-05-06 02:37 35.83954 -86.33799 12482 ft 308 kts 301°
2026-05-06 02:37 35.85225 -86.35914 12091 ft 305 kts 301°
2026-05-06 02:37 35.86483 -86.38008 11689 ft 303 kts 301°
2026-05-06 02:38 35.87732 -86.40089 11313 ft 301 kts 301°
2026-05-06 02:38 35.88970 -86.42153 10955 ft 298 kts 301°
2026-05-06 02:38 35.90188 -86.44185 10761 ft 290 kts 300°
2026-05-06 02:38 35.91346 -86.46115 10611 ft 272 kts 300°
2026-05-06 02:39 35.92451 -86.47960 10493 ft 263 kts 300°
2026-05-06 02:39 35.93520 -86.49746 10365 ft 255 kts 300°
2026-05-06 02:39 35.94568 -86.51508 10218 ft 257 kts 300°
2026-05-06 02:39 35.95628 -86.53289 10051 ft 258 kts 300°
2026-05-06 02:40 35.96332 -86.54474 9873 ft 259 kts 300°
2026-05-06 02:40 35.97754 -86.56867 9545 ft 256 kts 299°
2026-05-06 02:40 35.98851 -86.58571 9344 ft 255 kts 310°
2026-05-06 02:40 35.99839 -86.59386 9148 ft 265 kts 328°
2026-05-06 02:41 36.01698 -86.59788 8873 ft 281 kts 358°
2026-05-06 02:41 36.03604 -86.59129 8648 ft 286 kts 14°
2026-05-06 02:41 36.05460 -86.58325 8405 ft 280 kts 12°
2026-05-06 02:41 36.07281 -86.57570 8249 ft 272 kts 11°
2026-05-06 02:42 36.09049 -86.56850 8119 ft 264 kts 11°
2026-05-06 02:42 36.10803 -86.56157 8016 ft 264 kts 10°
2026-05-06 02:42 36.12556 -86.55504 7909 ft 261 kts
2026-05-06 02:42 36.14309 -86.54855 7584 ft 263 kts 10°
2026-05-06 02:43 36.16055 -86.54206 7320 ft 261 kts
2026-05-06 02:43 36.17801 -86.53559 7016 ft 262 kts
2026-05-06 02:43 36.19544 -86.52912 6768 ft 260 kts
2026-05-06 02:43 36.21264 -86.52273 6499 ft 259 kts 10°
2026-05-06 02:44 36.22990 -86.51631 6130 ft 258 kts 10°
2026-05-06 02:44 36.24709 -86.50993 5680 ft 258 kts 10°
2026-05-06 02:44 36.26436 -86.50351 5201 ft 260 kts 11°
2026-05-06 02:44 36.28183 -86.49702 4753 ft 262 kts 11°
2026-05-06 02:45 36.29914 -86.49060 4480 ft 255 kts 10°
2026-05-06 02:45 36.31595 -86.48822 4258 ft 232 kts 345°
2026-05-06 02:45 36.33014 -86.49365 4094 ft 204 kts 317°
2026-05-06 02:45 36.33975 -86.50509 3971 ft 185 kts 290°
2026-05-06 02:46 36.34591 -86.51892 4029 ft 179 kts 277°
2026-05-06 02:46 36.34732 -86.53338 4020 ft 164 kts 256°
2026-05-06 02:46 36.34605 -86.54740 4033 ft 161 kts 248°
2026-05-06 02:46 36.34066 -86.55872 3997 ft 151 kts 221°
2026-05-06 02:47 36.33260 -86.56694 4057 ft 150 kts 221°
2026-05-06 02:47 36.32512 -86.57616 4029 ft 154 kts 220°
2026-05-06 02:47 36.31603 -86.58325 4025 ft 156 kts 208°
2026-05-06 02:47 36.30599 -86.58865 3973 ft 159 kts 206°
2026-05-06 02:48 36.29574 -86.59345 3790 ft 156 kts 204°
2026-05-06 02:48 36.28555 -86.59789 3592 ft 153 kts 202°
2026-05-06 02:48 36.27551 -86.60208 3406 ft 150 kts 201°
2026-05-06 02:48 36.26586 -86.60603 3220 ft 142 kts 201°
2026-05-06 02:49 36.25661 -86.60977 3047 ft 139 kts 200°
2026-05-06 02:49 36.24751 -86.61345 2888 ft 138 kts 200°
2026-05-06 02:49 36.23832 -86.61713 2715 ft 132 kts 200°
2026-05-06 02:49 36.23036 -86.62036 2575 ft 116 kts 199°
2026-05-06 02:50 36.22285 -86.62339 2417 ft 111 kts 198°
2026-05-06 02:50 36.21550 -86.62638 2271 ft 111 kts 198°
2026-05-06 02:50 36.20811 -86.62935 2122 ft 113 kts 198°
2026-05-06 02:50 36.20057 -86.63237 1963 ft 116 kts 199°
2026-05-06 02:51 36.19270 -86.63559 1783 ft 120 kts 197°
2026-05-06 02:51 36.18467 -86.63881 1666 ft 121 kts 196°
2026-05-06 02:51 36.17674 -86.64199 1462 ft 121 kts 195°
2026-05-06 02:51 36.16842 -86.64531 1304 ft 126 kts 195°
2026-05-06 02:52 36.16002 -86.64869 1159 ft 127 kts 195°
2026-05-06 02:52 36.15143 -86.65215 877 ft 133 kts 197°
2026-05-06 02:52 36.14267 -86.65572 756 ft 130 kts 196°
2026-05-06 02:52 36.13414 -86.65911 585 ft 127 kts 196°
2026-05-06 02:53 36.12694 -86.66193 579 ft 80 kts 198°
2026-05-06 02:53 36.12336 -86.66338 585 ft 44 kts 199°
2026-05-06 02:53 36.12045 -86.66453 587 ft 43 kts 198°
2026-05-06 02:53 36.11794 -86.66555 596 ft 33 kts 198°
2026-05-06 02:54 36.11665 -86.66629 603 ft 14 kts 237°
2026-05-06 02:54 36.11678 -86.66732 599 ft 13 kts 330°
2026-05-06 02:54 36.11753 -86.66716 595 ft 14 kts 17°
2026-05-06 02:54 36.11871 -86.66669 587 ft 22 kts 18°
2026-05-06 02:55 36.12006 -86.66615 584 ft 16 kts 19°
2026-05-06 02:55 36.12129 -86.66566 581 ft 21 kts 18°
2026-05-06 02:55 36.12250 -86.66528 577 ft 13 kts 349°
2026-05-06 02:55 36.12296 -86.66610 574 ft 13 kts 285°
2026-05-06 02:56 36.12332 -86.66740 569 ft 20 kts 289°
2026-05-06 02:56 36.12406 -86.66903 567 ft 23 kts 313°
2026-05-06 02:56 36.12496 -86.66942 570 ft 14 kts 24°
2026-05-06 02:56 36.12583 -86.66884 571 ft 14 kts 22°
2026-05-06 02:57 36.12656 -86.66913 574 ft 12 kts 316°
2026-05-06 02:57 36.12705 -86.66982 573 ft 10 kts 310°
2026-05-06 02:57 36.12754 -86.67050 571 ft 11 kts 312°
2026-05-06 02:57 36.12801 -86.67116 572 ft 10 kts 307°
2026-05-06 02:58 36.12850 -86.67197 573 ft 14 kts 309°
2026-05-06 02:58 36.12894 -86.67183 571 ft 7 kts 90°
2026-05-06 02:58 36.12894 -86.67146 576 ft 0 kts 88°